When you browse on this site, cookies collect data to enhance your experience and personalize the content and advertising you see.
Visit our Privacy Policy to learn more. By continuing to use the site, you agree to this use of cookies and data.
  • In France
  • List of Countries
  • For 7 days
  • Water Temperature
  • Satellite Maps
  • Weather Map
  • Weather Widgets
  • user-avatar
    Login

    Hourly Weather Galata

    Today, 23 March, Saturday

    Time Temperature Precipitation Wind Pressure Humidity
    00:00 +9°C° 0 mm 2 mps 763 mmHg 67%
    01:00 +9°C° 0 mm 2 mps 763 mmHg 65%
    02:00 +9°C° 0 mm 3 mps 762 mmHg 61%
    03:00 +9°C° 0 mm 3 mps 762 mmHg 65%
    04:00 +7°C° 0 mm 4 mps 762 mmHg 70%
    05:00 +7°C° 0 mm 4 mps 762 mmHg 74%
    06:00 +8°C° 0 mm 4 mps 762 mmHg 72%
    07:00 +10°C° 0 mm 4 mps 762 mmHg 70%
    08:00 +9°C° 0 mm 5 mps 762 mmHg 67%
    09:00 +10°C° 0 mm 5 mps 762 mmHg 62%
    10:00 +10°C° 0 mm 5 mps 762 mmHg 57%
    11:00 +12°C° 0 mm 5 mps 762 mmHg 52%
    12:00 +12°C° 0 mm 5 mps 761 mmHg 50%
    13:00 +12°C° 0 mm 5 mps 761 mmHg 47%
    14:00 +13°C° 0 mm 4 mps 761 mmHg 47%
    15:00 +12°C° 0 mm 4 mps 761 mmHg 46%
    16:00 +12°C° 0 mm 4 mps 761 mmHg 45%
    17:00 +12°C° 0 mm 3 mps 761 mmHg 44%
    18:00 +11°C° 0 mm 3 mps 761 mmHg 47%
    19:00 +10°C° 0 mm 3 mps 762 mmHg 50%
    20:00 +9°C° 0 mm 3 mps 762 mmHg 53%
    21:00 +8°C° 0 mm 2 mps 762 mmHg 56%
    22:00 +8°C° 0 mm 1 mps 762 mmHg 58%
    23:00 +7°C° 0 mm 1 mps 762 mmHg 61%

    Tomorrow, 24 March, Sunday

    Time Temperature Precipitation Wind Pressure Humidity
    00:00 +7°C° 0 mm 1 mps 762 mmHg 60%
    01:00 +7°C° 0 mm 1 mps 762 mmHg 60%
    02:00 +6°C° 0 mm 1 mps 762 mmHg 60%
    03:00 +5°C° 0 mm 2 mps 762 mmHg 58%
    04:00 +5°C° 0 mm 2 mps 761 mmHg 57%
    05:00 +4°C° 0 mm 3 mps 761 mmHg 55%
    06:00 +4°C° 0 mm 3 mps 761 mmHg 53%
    07:00 +5°C° 0 mm 3 mps 761 mmHg 51%
    08:00 +6°C° 0 mm 4 mps 761 mmHg 49%
    09:00 +7°C° 0 mm 4 mps 761 mmHg 46%
    10:00 +10°C° 0 mm 3 mps 761 mmHg 43%
    11:00 +11°C° 0 mm 3 mps 761 mmHg 40%
    12:00 +12°C° 0 mm 3 mps 761 mmHg 39%
    13:00 +12°C° 0 mm 3 mps 761 mmHg 38%
    14:00 +13°C° 0 mm 3 mps 761 mmHg 38%
    15:00 +12°C° 0 mm 3 mps 760 mmHg 42%
    16:00 +11°C° 0 mm 3 mps 760 mmHg 46%
    17:00 +11°C° 0 mm 3 mps 759 mmHg 50%
    18:00 +9°C° 0 mm 3 mps 759 mmHg 56%
    19:00 +8°C° 0 mm 2 mps 759 mmHg 63%
    20:00 +7°C° 0 mm 2 mps 759 mmHg 69%
    21:00 +6°C° 0 mm 2 mps 759 mmHg 70%
    22:00 +6°C° 0 mm 2 mps 759 mmHg 71%
    23:00 +6°C° 0 mm 2 mps 759 mmHg 72%

    Day after tomorrow, 25 March, Monday

    Time Temperature Precipitation Wind Pressure Humidity
    00:00 +6°C° 0 mm 2 mps 759 mmHg 72%
    01:00 +6°C° 0 mm 2 mps 759 mmHg 73%
    02:00 +6°C° 0 mm 2 mps 758 mmHg 73%
    03:00 +5°C° 0 mm 2 mps 758 mmHg 73%
    04:00 +5°C° 0 mm 2 mps 757 mmHg 73%
    05:00 +5°C° 0 mm 2 mps 757 mmHg 73%
    06:00 +6°C° 0 mm 2 mps 757 mmHg 68%
    07:00 +7°C° 0 mm 2 mps 757 mmHg 63%
    08:00 +8°C° 0 mm 2 mps 756 mmHg 59%
    09:00 +10°C° 0 mm 3 mps 756 mmHg 53%
    10:00 +12°C° 0 mm 3 mps 756 mmHg 47%
    11:00 +14°C° 0 mm 3 mps 756 mmHg 41%
    12:00 +15°C° 0 mm 4 mps 755 mmHg 41%
    13:00 +15°C° 0 mm 5 mps 754 mmHg 41%
    14:00 +16°C° 0 mm 5 mps 754 mmHg 41%
    15:00 +15°C° 0 mm 5 mps 753 mmHg 45%
    16:00 +14°C° 0 mm 5 mps 753 mmHg 50%
    17:00 +13°C° 0 mm 5 mps 753 mmHg 54%
    18:00 +12°C° 0 mm 5 mps 753 mmHg 59%
    19:00 +10°C° 0 mm 4 mps 753 mmHg 65%
    20:00 +8°C° 0 mm 4 mps 753 mmHg 70%
    21:00 +8°C° 0 mm 4 mps 753 mmHg 72%
    22:00 +8°C° 0 mm 3 mps 753 mmHg 75%
    23:00 +8°C° 0 mm 3 mps 753 mmHg 77%

    26 March, Tuesday

    Time Temperature Precipitation Wind Pressure Humidity
    00:00 +8°C° 0 mm 3 mps 753 mmHg 79%
    01:00 +8°C° 0 mm 3 mps 752 mmHg 81%
    02:00 +8°C° 0 mm 3 mps 752 mmHg 83%
    03:00 +7°C° 0 mm 3 mps 752 mmHg 84%
    04:00 +7°C° 0 mm 3 mps 752 mmHg 84%
    05:00 +7°C° 0 mm 3 mps 752 mmHg 85%
    06:00 +8°C° 0 mm 3 mps 753 mmHg 81%
    07:00 +9°C° 0 mm 3 mps 753 mmHg 77%
    08:00 +10°C° 0 mm 2 mps 753 mmHg 73%
    09:00 +13°C° 0 mm 2 mps 753 mmHg 65%
    10:00 +14°C° 0 mm 2 mps 754 mmHg 58%
    11:00 +16°C° 0 mm 2 mps 754 mmHg 50%
    12:00 +17°C° 0 mm 2 mps 754 mmHg 48%
    13:00 +18°C° 0 mm 2 mps 754 mmHg 46%
    14:00 +18°C° 0 mm 2 mps 754 mmHg 44%
    15:00 +17°C° 0 mm 3 mps 754 mmHg 50%
    16:00 +15°C° 0 mm 4 mps 755 mmHg 57%
    17:00 +14°C° 0 mm 5 mps 755 mmHg 63%
    18:00 +11°C° 0 mm 6 mps 756 mmHg 68%
    19:00 +10°C° 0 mm 6 mps 757 mmHg 72%
    20:00 +8°C° 0 mm 7 mps 758 mmHg 76%
    21:00 +8°C° 0.2 mm 7 mps 758 mmHg 76%
    22:00 +8°C° 0.2 mm 7 mps 759 mmHg 75%
    23:00 +8°C° 0.2 mm 6 mps 759 mmHg 74%

    27 March, Wednesday

    Time Temperature Precipitation Wind Pressure Humidity
    00:00 +8°C° 0.1 mm 6 mps 759 mmHg 72%
    01:00 +8°C° 0.1 mm 6 mps 760 mmHg 71%
    02:00 +8°C° 0.1 mm 6 mps 760 mmHg 69%
    03:00 +7°C° 0 mm 6 mps 760 mmHg 68%
    04:00 +7°C° 0 mm 6 mps 760 mmHg 67%
    05:00 +5°C° 0 mm 7 mps 761 mmHg 66%
    06:00 +5°C° 0 mm 7 mps 761 mmHg 63%
    07:00 +5°C° 0 mm 7 mps 762 mmHg 60%
    08:00 +5°C° 0 mm 6 mps 762 mmHg 57%
    09:00 +7°C° 0 mm 6 mps 762 mmHg 52%
    10:00 +8°C° 0 mm 5 mps 763 mmHg 46%
    11:00 +9°C° 0 mm 5 mps 763 mmHg 41%
    12:00 +10°C° 0 mm 5 mps 763 mmHg 40%
    13:00 +10°C° 0 mm 5 mps 763 mmHg 39%
    14:00 +12°C° 0 mm 4 mps 763 mmHg 38%
    15:00 +11°C° 0 mm 4 mps 763 mmHg 40%
    16:00 +9°C° 0 mm 5 mps 763 mmHg 43%
    17:00 +9°C° 0 mm 5 mps 763 mmHg 46%
    18:00 +8°C° 0 mm 3 mps 763 mmHg 49%
    19:00 +7°C° 0 mm 2 mps 764 mmHg 51%
    20:00 +7°C° 0 mm 1 mps 764 mmHg 54%
    21:00 +7°C° 0 mm 1 mps 764 mmHg 55%
    22:00 +6°C° 0 mm 1 mps 765 mmHg 55%
    23:00 +6°C° 0 mm 1 mps 765 mmHg 56%

    28 March, Thursday

    Time Temperature Precipitation Wind Pressure Humidity
    00:00 +6°C° 0 mm 1 mps 765 mmHg 57%
    01:00 +5°C° 0 mm 2 mps 765 mmHg 58%
    02:00 +5°C° 0 mm 2 mps 765 mmHg 58%
    03:00 +3°C° 0 mm 3 mps 765 mmHg 60%
    04:00 +3°C° 0 mm 3 mps 765 mmHg 62%
    05:00 +3°C° 0 mm 4 mps 765 mmHg 64%
    06:00 +3°C° 0 mm 5 mps 766 mmHg 62%
    07:00 +5°C° 0 mm 5 mps 766 mmHg 59%
    08:00 +4°C° 0 mm 6 mps 766 mmHg 57%
    09:00 +5°C° 0 mm 6 mps 766 mmHg 53%
    10:00 +7°C° 0 mm 6 mps 766 mmHg 50%
    11:00 +8°C° 0 mm 6 mps 766 mmHg 46%
    12:00 +8°C° 0 mm 7 mps 766 mmHg 47%
    13:00 +8°C° 0 mm 7 mps 766 mmHg 48%
    14:00 +8°C° 0 mm 7 mps 765 mmHg 49%
    15:00 +8°C° 0 mm 7 mps 765 mmHg 50%
    16:00 +6°C° 0 mm 7 mps 765 mmHg 51%
    17:00 +6°C° 0 mm 7 mps 765 mmHg 52%
    18:00 +5°C° 0 mm 6 mps 765 mmHg 55%
    19:00 +4°C° 0 mm 6 mps 765 mmHg 59%
    20:00 +3°C° 0 mm 5 mps 766 mmHg 62%
    21:00 +3°C° 0 mm 5 mps 766 mmHg 63%
    22:00 +3°C° 0 mm 4 mps 766 mmHg 64%
    23:00 +3°C° 0 mm 4 mps 766 mmHg 65%
    Show more